North Platte, NE

9:23 AM CDT on March 29, 2017 (GMT -0500)
North Platte Regional-Bird

Weather History for KLBF - September, 2014

Change the Weather History Date:

Saturday, September 6, 2014

  Actual Average Record
Temperature  
Mean Temperature 62 °F 67 °F  
Max Temperature 75 °F 82 °F 103 °F (2013)
Min Temperature 49 °F 51 °F 27 °F (1956)
Degree Days  
Heating Degree Days 3 2  
Month to date heating degree days 12 12  
Since 1 July heating degree days 29 32  
Cooling Degree Days 0 4  
Month to date cooling degree days 18 27  
Year to date cooling degree days 687 722  
Growing Degree Days 12 (Base 50)    
Moisture  
Dew Point 51 °F    
Average Humidity 71    
Maximum Humidity 100    
Minimum Humidity 41    
Precipitation  
Precipitation 0.00 in 0.05 in 1.45 in (1927)
Month to date precipitation 0.34 0.29  
Year to date precipitation 18.62 16.51  
Snow  
Snow 0.00 in 0.00 in 0.00 in (2002)
Month to date snowfall 0.0 0.0  
Since 1 July snowfall 0.0 0.0  
Since 1 September snowfall 0.0 0.0  
Snow Depth 0.00 in    
Sea Level Pressure  
Sea Level Pressure 30.26 in    
Wind  
Wind Speed 5 mph (SE)    
Max Wind Speed 10 mph    
Max Gust Speed 14 mph    
Visibility 10 miles    
Events      
T = Trace of Precipitation, MM = Missing Value Source: NWS Daily Summary

Daily Weather History Graph

Daily Weather History Graph

Search for Another Location

Airport or City:

Trip Planner

Search our weather history database for the weather conditions in past years. The results will help you decide how hot, cold, wet, or windy it might be!

Date:

Astronomy

Sep. 06, 2014 Rise Set
Actual Time 7:14 AM CDT 8:07 PM CDT
Civil Twilight 6:46 AM CDT 8:34 PM CDT
Nautical Twilight 6:12 AM CDT 9:08 PM CDT
Astronomical Twilight 5:38 AM CDT 9:42 PM CDT
Moon 6:25 PM CDT (9/6) 4:17 AM CDT (9/6)
Length of Visible Light 13h 48m
Length of Day
12h 52m
Waxing Gibbous, 92% of the Moon is Illuminated
Sep 6
Waxing Gibbous
Sep 8
Full
Sep 15
Last Quarter
Sep 24
New
Oct 1
First Quarter

Hourly Weather History & Observations

Time (CDT) Temp. Dew Point Humidity Pressure Visibility Wind Dir Wind Speed Gust Speed Precip Events Conditions
12:53 AM 50.0 °F 46.9 °F 89% 30.30 in 10.0 mi NE 4.6 mph - N/A   Clear
1:53 AM 50.0 °F 48.9 °F 96% 30.30 in 10.0 mi SE 4.6 mph - N/A   Clear
4:53 AM 52.0 °F 50.0 °F 93% 30.29 in 10.0 mi ESE 4.6 mph - N/A   Overcast
5:53 AM 52.0 °F 51.1 °F 97% 30.29 in 8.0 mi ESE 5.8 mph - N/A   Overcast
6:53 AM 51.8 °F 51.8 °F 100% 30.33 in 10.0 mi Calm Calm - N/A   Overcast
7:53 AM 52.0 °F 50.0 °F 93% 30.32 in 8.0 mi Calm Calm - N/A   Clear
8:53 AM 55.9 °F 52.0 °F 87% 30.32 in 10.0 mi SE 3.5 mph - N/A   Clear
9:53 AM 61.0 °F 54.0 °F 78% 30.31 in 10.0 mi South 4.6 mph - N/A   Clear
10:53 AM 64.9 °F 53.1 °F 65% 30.32 in 10.0 mi South 4.6 mph - N/A   Clear
11:53 AM 69.8 °F 50.0 °F 49% 30.33 in 10.0 mi North - - N/A   Clear
12:53 PM 68.0 °F 48.9 °F 50% 30.30 in 10.0 mi South 3.5 mph - N/A   Clear
1:53 PM 73.0 °F 50.0 °F 44% 30.27 in 10.0 mi South 8.1 mph - N/A   Scattered Clouds
2:53 PM 73.9 °F 51.1 °F 45% 30.25 in 10.0 mi SW 6.9 mph - N/A   Clear
3:53 PM 73.9 °F 48.9 °F 41% 30.23 in 10.0 mi South 8.1 mph - N/A   Clear
4:53 PM 75.0 °F 51.1 °F 43% 30.20 in 10.0 mi SSE 10.4 mph - N/A   Clear
5:53 PM 73.9 °F 52.0 °F 46% 30.19 in 10.0 mi Variable 6.9 mph - N/A   Clear
6:53 PM 72.0 °F 52.0 °F 49% 30.19 in 10.0 mi South 5.8 mph - N/A   Clear
7:53 PM 64.9 °F 55.0 °F 70% 30.19 in 10.0 mi ESE 6.9 mph - N/A   Clear
8:53 PM 60.1 °F 54.0 °F 80% 30.20 in 10.0 mi ESE 8.1 mph - N/A   Clear
9:53 PM 57.0 °F 53.1 °F 87% 30.20 in 10.0 mi East 5.8 mph - N/A   Clear
10:53 PM 54.0 °F 52.0 °F 93% 30.19 in 10.0 mi ESE 6.9 mph - N/A   Clear
11:53 PM 54.0 °F 51.1 °F 90% 30.19 in 10.0 mi East 8.1 mph - N/A   Clear